Weather History for Newport, RI

Change the Weather History Date:

Sunday, September 16, 2012

  Actual Average Record
Temperature  
Mean Temperature 61 °F -  
Max Temperature 70 °F 71 °F 78 °F (1965)
Min Temperature 52 °F 55 °F 45 °F (1964)
Degree Days  
Heating Degree Days 4    
Growing Degree Days 11 (Base 50)    
Moisture  
Dew Point 47 °F    
Average Humidity 65    
Maximum Humidity 89    
Minimum Humidity 42    
Precipitation  
Precipitation 0.00 in - - ()
Sea Level Pressure  
Sea Level Pressure 30.05 in    
Wind  
Wind Speed 4 mph (WNW)    
Max Wind Speed 12 mph    
Max Gust Speed 20 mph    
Visibility 10 miles    
Events      
Averages and records for this station are not official NWS values.
T = Trace of Precipitation, MM = Missing Value Source: NWS Daily Summary

Daily Weather History Graph

Daily Weather History Graph

Search for Another Location

Airport:

Trip Planner

Search our weather history database for the weather conditions in past years. The results will help you decide how hot, cold, wet, or windy it might be!

Date:

Astronomy

Sep. 16, 2012 Rise Set
Actual Time 6:26 AM EDT 6:51 PM EDT
Civil Twilight 5:59 AM EDT 7:19 PM EDT
Nautical Twilight 5:26 AM EDT 7:52 PM EDT
Astronomical Twilight 4:52 AM EDT 8:25 PM EDT
Moon 7:03 AM EDT (9/16) 6:53 PM EDT (9/16)
Length of Visible Light 13h 20m
Length of Day
12h 25m
New Moon, 0% of the Moon is Illuminated
Sep 16
New Moon
Sep 22
First Quarter
Sep 29
Full
Oct 8
Last Quarter
Oct 15
New

Hourly Weather History & Observations

Time (EDT) Temp. Dew Point Humidity Pressure Visibility Wind Dir Wind Speed Gust Speed Precip Events Conditions
12:53 AM 53.1 °F 46.9 °F 80% 30.06 in 10.0 mi Calm Calm - N/A   Clear
1:53 AM 53.1 °F 46.9 °F 80% 30.06 in 10.0 mi Calm Calm - N/A   Clear
2:53 AM 52.0 °F 48.0 °F 86% 30.05 in 10.0 mi NW 5.8 mph - N/A   Clear
3:53 AM 55.0 °F 48.9 °F 80% 30.05 in 10.0 mi NW 6.9 mph - N/A   Clear
4:53 AM 55.0 °F 48.0 °F 77% 30.05 in 10.0 mi WNW 6.9 mph - N/A   Clear
5:53 AM 54.0 °F 46.9 °F 77% 30.06 in 10.0 mi NW 4.6 mph - N/A   Clear
6:53 AM 52.0 °F 48.0 °F 86% 30.09 in 10.0 mi Calm Calm - N/A   Clear
8:53 AM 60.1 °F 50.0 °F 69% 30.09 in 10.0 mi NW 8.1 mph - N/A   Clear
9:53 AM 63.0 °F 50.0 °F 63% 30.09 in 10.0 mi NW 9.2 mph - N/A   Clear
10:53 AM 66.0 °F 46.0 °F 48% 30.07 in 10.0 mi WNW 10.4 mph - N/A   Clear
11:53 AM 66.9 °F 46.0 °F 47% 30.06 in 10.0 mi WNW 11.5 mph 19.6 mph N/A   Partly Cloudy
12:53 PM 68.0 °F 46.9 °F 47% 30.05 in 10.0 mi WNW 11.5 mph 17.3 mph N/A   Partly Cloudy
1:53 PM 68.0 °F 45.0 °F 43% 30.03 in 10.0 mi WNW 6.9 mph 17.3 mph N/A   Clear
2:53 PM 69.1 °F 46.0 °F 44% 30.02 in 10.0 mi Variable 3.5 mph 16.1 mph N/A   Clear
3:53 PM 70.0 °F 46.0 °F 42% 30.01 in 10.0 mi Variable 6.9 mph - N/A   Clear
4:53 PM 70.0 °F 46.9 °F 44% 30.00 in 10.0 mi West 6.9 mph - N/A   Clear
5:53 PM 68.0 °F 45.0 °F 43% 30.00 in 10.0 mi West 8.1 mph - N/A   Clear
6:53 PM 64.9 °F 46.9 °F 52% 30.01 in 10.0 mi WNW 4.6 mph - N/A   Clear
7:53 PM 61.0 °F 48.0 °F 62% 30.03 in 10.0 mi Calm Calm - N/A   Clear
8:53 PM 55.9 °F 48.9 °F 77% 30.04 in 10.0 mi Calm Calm - N/A   Clear
9:53 PM 54.0 °F 48.9 °F 83% 30.04 in 10.0 mi Calm Calm - N/A   Clear
10:53 PM 53.1 °F 48.0 °F 83% 30.05 in 10.0 mi Calm Calm - N/A   Clear
11:53 PM 52.0 °F 48.9 °F 89% 30.05 in 10.0 mi Calm Calm - N/A   Clear